Total_Precipitation_Accumulation
0.00 0.00 0.00 0.00 0.00 0.00 0.01 0.03 0.05 0.08 0.14 0.13 0.16 0.18 0.18 0.17 0.30 0.70 0.48 0.21 0.16 0.03 0.01 0.01 0.01 0.02 0.03 0.04 0.06 0.06 0.07 0.07 0.07 0.06 0.05 0.05 0.06 0.06 0.07 0.06 0.07 0.10 0.12 0.11 0.10 0.09 0.07 0.05 0.03
0.00 0.00 0.00 0.00 0.00 0.00 0.01 0.02 0.05 0.07 0.10 0.10 0.13 0.14 0.13 0.15 0.15 0.13 0.13 0.09 0.09 0.02 0.00 0.00 0.01 0.02 0.02 0.03 0.04 0.06 0.07 0.06 0.06 0.05 0.05 0.05 0.05 0.06 0.07 0.07 0.09 0.13 0.16 0.14 0.09 0.07 0.04 0.02 0.02
0.00 0.00 0.00 0.00 0.00 0.00 0.02 0.04 0.06 0.06 0.08 0.09 0.13 0.25 0.28 0.19 0.13 0.10 0.05 0.05 0.06 0.02 0.00 0.00 0.01 0.02 0.02 0.02 0.02 0.04 0.05 0.05 0.06 0.05 0.04 0.05 0.05 0.05 0.08 0.12 0.15 0.16 0.17 0.17 0.13 0.09 0.05 0.02 0.01
0.00 0.00 0.00 0.00 0.00 0.00 0.02 0.05 0.06 0.05 0.05 0.07 0.11 0.31 0.42 0.17 0.12 0.09 0.05 0.05 0.05 0.03 0.01 0.01 0.01 0.02 0.02 0.02 0.02 0.04 0.05 0.05 0.05 0.05 0.05 0.06 0.06 0.07 0.10 0.18 0.23 0.22 0.19 0.22 0.21 0.17 0.11 0.04 0.03
0.00 0.00 0.00 0.00 0.00 0.00 0.01 0.03 0.06 0.04 0.03 0.03 0.07 0.23 0.40 0.23 0.10 0.08 0.07 0.05 0.05 0.04 0.01 0.01 0.02 0.03 0.02 0.02 0.02 0.04 0.05 0.07 0.09 0.09 0.08 0.08 0.08 0.09 0.15 0.22 0.25 0.23 0.23 0.24 0.20 0.14 0.08 0.06 0.06
0.00 0.00 0.00 0.00 0.00 0.01 0.00 0.01 0.04 0.04 0.03 0.04 0.07 0.18 0.38 0.30 0.19 0.12 0.11 0.09 0.06 0.05 0.01 0.01 0.03 0.04 0.04 0.03 0.05 0.07 0.08 0.09 0.11 0.12 0.11 0.08 0.07 0.10 0.15 0.19 0.22 0.23 0.21 0.16 0.13 0.10 0.08 0.09 0.10
0.00 0.00 0.00 0.00 0.00 0.01 0.01 0.02 0.03 0.04 0.05 0.05 0.09 0.19 0.39 0.37 0.26 0.20 0.18 0.16 0.11 0.09 0.08 0.05 0.05 0.04 0.06 0.09 0.11 0.12 0.11 0.11 0.12 0.11 0.09 0.07 0.07 0.10 0.13 0.17 0.22 0.22 0.15 0.11 0.09 0.08 0.06 0.06 0.07
0.00 0.00 0.00 0.00 0.00 0.01 0.02 0.03 0.04 0.06 0.09 0.07 0.09 0.20 0.51 0.57 0.36 0.33 0.28 0.30 0.26 0.21 0.21 0.22 0.15 0.08 0.06 0.07 0.11 0.12 0.12 0.13 0.11 0.09 0.06 0.07 0.10 0.12 0.14 0.12 0.14 0.13 0.09 0.06 0.04 0.02 0.01 0.01 0.01
0.00 0.00 0.00 0.00 0.00 0.01 0.02 0.04 0.05 0.05 0.07 0.06 0.07 0.14 0.44 0.52 0.39 0.34 0.34 0.34 0.41 0.49 0.46 0.39 0.31 0.17 0.12 0.10 0.10 0.12 0.12 0.13 0.11 0.09 0.08 0.11 0.15 0.17 0.18 0.12 0.11 0.08 0.05 0.03 0.02 0.01 0.01 0.01 0.01
0.00 0.00 0.00 0.00 0.00 0.01 0.01 0.02 0.04 0.04 0.04 0.06 0.10 0.13 0.27 0.36 0.35 0.36 0.38 0.40 0.45 0.72 0.67 0.44 0.39 0.33 0.25 0.17 0.15 0.17 0.14 0.12 0.12 0.16 0.12 0.17 0.29 0.34 0.26 0.22 0.13 0.08 0.06 0.05 0.03 0.03 0.02 0.02 0.03
0.00 0.00 0.00 0.00 0.00 0.00 0.00 0.01 0.02 0.04 0.06 0.07 0.10 0.19 0.23 0.30 0.35 0.44 0.48 0.50 0.54 0.58 0.51 0.45 0.50 0.46 0.43 0.41 0.40 0.38 0.37 0.34 0.26 0.30 0.27 0.31 0.33 0.29 0.29 0.27 0.20 0.15 0.12 0.12 0.12 0.08 0.06 0.06 0.07
0.00 0.00 0.00 0.00 0.00 0.00 0.00 0.00 0.01 0.03 0.04 0.07 0.11 0.24 0.36 0.44 0.56 0.64 0.68 0.73 0.84 0.80 0.68 0.57 0.52 0.52 0.55 0.56 0.64 0.68 0.63 0.57 0.51 0.44 0.33 0.38 0.48 0.49 0.42 0.42 0.38 0.36 0.32 0.29 0.25 0.21 0.15 0.14 0.13
0.00 0.00 0.00 0.00 0.00 0.00 0.00 0.00 0.00 0.02 0.03 0.04 0.08 0.19 0.32 0.46 0.61 0.89 0.90 1.01 1.19 1.23 1.07 0.85 0.77 0.67 0.67 0.73 0.74 0.65 0.67 0.69 0.78 0.71 0.54 0.59 0.59 0.59 0.65 0.61 0.61 0.56 0.55 0.51 0.42 0.33 0.29 0.27 0.23
0.00 0.00 0.00 0.00 0.00 0.00 0.00 0.00 0.00 0.01 0.01 0.02 0.07 0.13 0.23 0.36 0.53 0.82 1.06 1.24 1.51 1.60 1.42 1.19 1.01 0.98 0.96 1.01 1.01 0.89 0.78 0.80 0.86 0.92 0.85 0.89 0.88 0.86 0.87 0.90 0.95 0.82 0.76 0.78 0.69 0.52 0.46 0.42 0.36
0.00 0.00 0.00 0.00 0.00 0.00 0.00 0.01 0.01 0.02 0.02 0.03 0.06 0.13 0.24 0.40 0.56 0.86 1.25 1.51 1.84 1.86 1.66 1.58 1.37 1.42 1.43 1.49 1.45 1.44 1.34 1.28 1.20 1.17 1.21 1.22 1.16 1.14 1.09 1.18 1.27 1.14 1.08 1.08 0.98 0.87 0.71 0.67 0.61
0.00 0.00 0.00 0.00 0.00 0.00 0.00 0.02 0.04 0.03 0.02 0.04 0.09 0.15 0.28 0.46 0.68 0.97 1.33 1.49 1.78 1.78 1.76 1.78 1.59 1.57 1.73 1.72 1.62 1.56 1.67 1.68 1.61 1.53 1.56 1.47 1.46 1.48 1.51 1.45 1.43 1.38 1.33 1.30 1.35 1.19 0.99 0.90 0.92
0.00 0.00 0.00 0.00 0.00 0.00 0.01 0.05 0.06 0.03 0.02 0.05 0.12 0.17 0.29 0.43 0.57 0.86 1.31 1.53 1.67 1.70 1.57 1.63 1.82 1.74 1.86 1.86 1.79 1.78 1.88 1.98 2.04 2.01 1.94 1.89 1.88 1.86 1.93 2.00 1.86 1.69 1.57 1.53 1.41 1.36 1.21 1.15 1.11
0.00 0.00 0.00 0.00 0.00 0.00 0.02 0.05 0.06 0.05 0.05 0.10 0.14 0.17 0.26 0.42 0.64 0.89 1.19 1.53 1.61 1.67 1.69 1.68 1.85 1.84 1.98 2.09 1.96 1.97 1.96 2.02 2.18 2.32 2.42 2.52 2.59 2.55 2.47 2.35 2.20 1.99 1.86 1.78 1.64 1.54 1.38 1.23 1.09
0.00 0.00 0.00 0.00 0.01 0.02 0.04 0.07 0.11 0.11 0.11 0.18 0.23 0.31 0.43 0.47 0.64 0.97 1.20 1.57 1.90 1.83 1.87 1.79 1.78 1.98 2.05 2.17 2.26 2.43 2.39 2.35 2.58 2.88 3.05 3.24 3.30 3.12 3.03 2.91 2.69 2.43 2.18 1.97 1.72 1.53 1.37 1.20 1.03
0.00 0.00 0.01 0.02 0.02 0.03 0.06 0.11 0.19 0.20 0.20 0.28 0.42 0.52 0.70 0.83 0.86 1.07 1.36 1.66 1.91 1.92 1.91 1.96 2.08 2.17 2.29 2.60 3.00 3.37 3.60 3.73 3.81 3.97 4.02 3.96 3.83 3.69 3.54 3.37 3.08 2.71 2.41 2.12 1.82 1.52 1.32 1.15 1.00
0.00 0.00 0.02 0.04 0.07 0.09 0.12 0.22 0.28 0.29 0.29 0.37 0.54 0.62 0.74 0.90 1.02 1.01 1.09 1.28 1.59 1.82 1.97 2.03 2.33 2.65 2.94 3.40 3.94 4.32 4.67 4.89 4.80 4.62 4.45 4.22 4.04 3.85 3.53 3.26 3.06 2.73 2.31 1.99 1.71 1.43 1.26 1.10 0.92
0.01 0.00 0.02 0.03 0.07 0.16 0.17 0.33 0.43 0.40 0.36 0.37 0.43 0.47 0.54 0.56 0.70 0.86 0.96 1.10 1.33 1.57 1.84 2.07 2.42 2.93 3.59 4.25 4.79 5.20 5.38 5.38 5.27 5.01 4.64 4.22 3.90 3.61 3.28 2.95 2.65 2.36 2.01 1.71 1.44 1.16 0.98 0.86 0.73
0.00 0.00 0.01 0.04 0.06 0.13 0.16 0.36 0.56 0.53 0.48 0.47 0.48 0.43 0.43 0.46 0.51 0.65 0.77 0.93 1.15 1.36 1.67 2.04 2.51 3.14 3.75 4.38 4.89 5.27 5.39 5.27 5.00 4.58 4.14 3.67 3.24 2.90 2.59 2.29 2.02 1.78 1.53 1.27 1.01 0.84 0.73 0.66 0.58
0.00 0.00 0.02 0.05 0.07 0.17 0.16 0.30 0.62 0.78 0.72 0.69 0.63 0.60 0.56 0.55 0.58 0.61 0.65 0.77 0.95 1.21 1.54 1.90 2.31 2.84 3.33 3.73 4.21 4.49 4.59 4.49 4.19 3.72 3.20 2.77 2.46 2.18 1.95 1.70 1.49 1.31 1.09 0.91 0.77 0.66 0.61 0.58 0.52
0.00 0.01 0.06 0.11 0.13 0.19 0.17 0.35 0.73 0.97 0.92 0.88 0.84 0.80 0.68 0.65 0.62 0.60 0.63 0.68 0.82 1.06 1.38 1.61 1.88 2.24 2.56 2.90 3.26 3.46 3.43 3.25 3.03 2.74 2.42 2.11 1.81 1.56 1.35 1.13 0.98 0.85 0.73 0.63 0.55 0.49 0.45 0.42 0.40
0.00 0.01 0.07 0.14 0.16 0.23 0.34 0.61 0.88 0.95 0.88 0.82 0.79 0.70 0.65 0.58 0.53 0.58 0.69 0.75 0.85 0.95 1.12 1.31 1.43 1.62 1.76 1.87 2.05 2.11 2.07 1.97 1.92 1.76 1.55 1.34 1.11 0.90 0.77 0.67 0.59 0.53 0.47 0.41 0.37 0.33 0.30 0.27 0.24
0.01 0.02 0.03 0.05 0.09 0.23 0.52 0.87 1.07 1.03 0.94 0.81 0.68 0.55 0.54 0.49 0.43 0.47 0.58 0.70 0.76 0.79 0.83 0.85 0.86 0.91 0.94 0.96 1.06 1.11 1.13 1.11 1.07 0.97 0.85 0.76 0.69 0.60 0.52 0.45 0.42 0.39 0.34 0.29 0.24 0.21 0.19 0.17 0.16
0.01 0.02 0.03 0.06 0.16 0.30 0.50 0.83 1.16 1.36 1.29 1.13 0.87 0.62 0.54 0.48 0.47 0.50 0.55 0.59 0.62 0.60 0.58 0.56 0.59 0.58 0.54 0.51 0.52 0.56 0.60 0.59 0.57 0.55 0.53 0.49 0.45 0.40 0.34 0.29 0.25 0.22 0.20 0.17 0.16 0.14 0.13 0.13 0.13
0.02 0.02 0.04 0.08 0.13 0.28 0.58 0.96 1.12 1.41 1.39 1.19 0.95 0.74 0.65 0.61 0.61 0.61 0.61 0.55 0.54 0.54 0.50 0.47 0.48 0.45 0.41 0.39 0.39 0.36 0.34 0.33 0.30 0.29 0.30 0.28 0.25 0.23 0.20 0.18 0.16 0.15 0.14 0.14 0.14 0.14 0.14 0.14 0.15
0.04 0.04 0.04 0.10 0.11 0.16 0.49 1.13 1.34 1.52 1.50 1.31 1.20 1.09 0.96 0.87 0.81 0.76 0.70 0.58 0.52 0.49 0.47 0.43 0.41 0.37 0.35 0.31 0.27 0.25 0.23 0.22 0.21 0.20 0.19 0.17 0.16 0.15 0.15 0.14 0.14 0.12 0.12 0.13 0.13 0.13 0.13 0.14 0.14